Location: Delmar
(42.6220°N, 73.8326°W)
Time: 10:05:43
(UTC+00:00)

Cosmos 2219 - Pass Details

Date: 29 October 2020
Orbit: 832 x 862 km, 71.1° (Epoch: 23 November)

Event Time Altitude Azimuth Distance (km) Brightness Sun altitude
Rises 23:10:30 0° 332° (NNW) 3,446 6.7 -15.1°
Reaches altitude 10° 23:13:00 10° 328° (NNW) 2,507 6.0 -15.5°
Maximum altitude 23:18:38 58° 251° (WSW) 999 3.9 -16.6°
Drops below altitude 10° 23:24:14 10° 173° (S) 2,488 5.6 -17.6°
Sets 23:26:43 0° 170° (S) 3,418 6.3 -18.0°
